HYPERVIEW 1G (RS66S)

Last updated on Sun Jun 21 2026 00:03:20 GMT+0000 (Coordinated Universal Time)

1 61772U 24199AP 26171.11001400 .00125192 00000+0 78003-3 0 9992 2 61772 97.2851 50.9798 0004715 207.8229 152.2786 15.76549631135133
UTC large
Height (km)
Speed (km/s)
/
Latitude / Longitude
Inclination (degrees)
Orbital Period (minutes)
Azimuth
Elevation
Range (km)
Doppler Factor

Next 0 passes for location: London (51.5072 / 0.1276)

No passes found over London.
HYPERVIEW 1G (RS66S)